Year,Month,Day,Hour,Minute,Value (Times are PST for insolation in W/m^2)
2020,05,21,00,00,0.00
2020,05,21,00,01,0.00
2020,05,21,00,02,0.00
2020,05,21,00,03,0.00
2020,05,21,00,04,0.00
2020,05,21,00,05,0.00
2020,05,21,00,06,0.00
2020,05,21,00,07,0.00
2020,05,21,00,08,0.00
2020,05,21,00,09,0.00
2020,05,21,00,10,0.00
2020,05,21,00,11,0.00
2020,05,21,00,12,0.00
2020,05,21,00,13,0.00
2020,05,21,00,14,0.00
2020,05,21,00,15,0.00
2020,05,21,00,16,0.00
2020,05,21,00,17,0.00
2020,05,21,00,18,0.00
2020,05,21,00,19,0.00
2020,05,21,00,20,0.00
2020,05,21,00,21,0.00
2020,05,21,00,22,0.00
2020,05,21,00,23,0.00
2020,05,21,00,24,0.00
2020,05,21,00,25,0.00
2020,05,21,00,26,0.00
2020,05,21,00,27,0.00
2020,05,21,00,28,0.00
2020,05,21,00,29,0.00
2020,05,21,00,30,0.00
2020,05,21,00,31,0.00
2020,05,21,00,32,0.00
2020,05,21,00,33,0.00
2020,05,21,00,34,0.00
2020,05,21,00,35,0.00
2020,05,21,00,36,0.00
2020,05,21,00,37,0.00
2020,05,21,00,38,0.00
2020,05,21,00,39,0.00
2020,05,21,00,40,0.00
2020,05,21,00,41,0.00
2020,05,21,00,42,0.00
2020,05,21,00,43,0.00
2020,05,21,00,44,0.00
2020,05,21,00,45,0.00
2020,05,21,00,46,0.00
2020,05,21,00,47,0.00
2020,05,21,00,48,0.00
2020,05,21,00,49,0.00
2020,05,21,00,50,0.00
2020,05,21,00,51,0.00
2020,05,21,00,52,0.00
2020,05,21,00,53,0.00
2020,05,21,00,54,0.00
2020,05,21,00,55,0.00
2020,05,21,00,56,0.00
2020,05,21,00,57,0.00
2020,05,21,00,58,0.00
2020,05,21,00,59,0.00
2020,05,21,01,00,0.00
2020,05,21,01,01,0.00
2020,05,21,01,02,0.00
2020,05,21,01,03,0.00
2020,05,21,01,04,0.00
2020,05,21,01,05,0.00
2020,05,21,01,06,0.00
2020,05,21,01,07,0.00
2020,05,21,01,08,0.00
2020,05,21,01,09,0.00
2020,05,21,01,10,0.00
2020,05,21,01,11,0.00
2020,05,21,01,12,0.00
2020,05,21,01,13,0.00
2020,05,21,01,14,0.00
2020,05,21,01,15,0.00
2020,05,21,01,16,0.00
2020,05,21,01,17,0.00
2020,05,21,01,18,0.00
2020,05,21,01,19,0.00
2020,05,21,01,20,0.00
2020,05,21,01,21,0.00
2020,05,21,01,22,0.00
2020,05,21,01,23,0.00
2020,05,21,01,24,0.00
2020,05,21,01,25,0.00
2020,05,21,01,26,0.00
2020,05,21,01,27,0.00
2020,05,21,01,28,0.00
2020,05,21,01,29,0.00
2020,05,21,01,30,0.00
2020,05,21,01,31,0.00
2020,05,21,01,32,0.00
2020,05,21,01,33,0.00
2020,05,21,01,34,0.00
2020,05,21,01,35,0.00
2020,05,21,01,36,0.00
2020,05,21,01,37,0.00
2020,05,21,01,38,0.00
2020,05,21,01,39,0.00
2020,05,21,01,40,0.00
2020,05,21,01,41,0.00
2020,05,21,01,42,0.00
2020,05,21,01,43,0.00
2020,05,21,01,44,0.00
2020,05,21,01,45,0.00
2020,05,21,01,46,0.00
2020,05,21,01,47,0.00
2020,05,21,01,48,0.00
2020,05,21,01,49,0.00
2020,05,21,01,50,0.00
2020,05,21,01,51,0.00
2020,05,21,01,52,0.00
2020,05,21,01,53,0.00
2020,05,21,01,54,0.00
2020,05,21,01,55,0.00
2020,05,21,01,56,0.00
2020,05,21,01,57,0.00
2020,05,21,01,58,0.00
2020,05,21,01,59,0.00
2020,05,21,02,00,0.00
2020,05,21,02,01,0.00
2020,05,21,02,02,0.00
2020,05,21,02,03,0.00
2020,05,21,02,04,0.00
2020,05,21,02,05,0.00
2020,05,21,02,06,0.00
2020,05,21,02,07,0.00
2020,05,21,02,08,0.00
2020,05,21,02,09,0.00
2020,05,21,02,10,0.00
2020,05,21,02,11,0.00
2020,05,21,02,12,0.00
2020,05,21,02,13,0.00
2020,05,21,02,14,0.00
2020,05,21,02,15,0.00
2020,05,21,02,16,0.00
2020,05,21,02,17,0.00
2020,05,21,02,18,0.00
2020,05,21,02,19,0.00
2020,05,21,02,20,0.00
2020,05,21,02,21,0.00
2020,05,21,02,22,0.00
2020,05,21,02,23,0.00
2020,05,21,02,24,0.00
2020,05,21,02,25,0.00
2020,05,21,02,26,0.00
2020,05,21,02,27,0.00
2020,05,21,02,28,0.00
2020,05,21,02,29,0.00
2020,05,21,02,30,0.00
2020,05,21,02,31,0.00
2020,05,21,02,32,0.00
2020,05,21,02,33,0.00
2020,05,21,02,34,0.00
2020,05,21,02,35,0.00
2020,05,21,02,36,0.00
2020,05,21,02,37,0.00
2020,05,21,02,38,0.00
2020,05,21,02,39,0.00
2020,05,21,02,40,0.00
2020,05,21,02,41,0.00
2020,05,21,02,42,0.00
2020,05,21,02,43,0.00
2020,05,21,02,44,0.00
2020,05,21,02,45,0.00
2020,05,21,02,46,0.00
2020,05,21,02,47,0.00
2020,05,21,02,48,0.00
2020,05,21,02,49,0.00
2020,05,21,02,50,0.00
2020,05,21,02,51,0.00
2020,05,21,02,52,0.00
2020,05,21,02,53,0.00
2020,05,21,02,54,0.00
2020,05,21,02,55,0.00
2020,05,21,02,56,0.00
2020,05,21,02,57,0.00
2020,05,21,02,58,0.00
2020,05,21,02,59,0.00
2020,05,21,03,00,0.00
2020,05,21,03,01,0.00
2020,05,21,03,02,0.00
2020,05,21,03,03,0.00
2020,05,21,03,04,0.00
2020,05,21,03,05,0.00
2020,05,21,03,06,0.00
2020,05,21,03,07,0.00
2020,05,21,03,08,0.00
2020,05,21,03,09,0.00
2020,05,21,03,10,0.00
2020,05,21,03,11,0.00
2020,05,21,03,12,0.00
2020,05,21,03,13,0.00
2020,05,21,03,14,0.00
2020,05,21,03,15,0.00
2020,05,21,03,16,0.00
2020,05,21,03,17,0.00
2020,05,21,03,18,0.00
2020,05,21,03,19,0.00
2020,05,21,03,20,0.00
2020,05,21,03,21,0.00
2020,05,21,03,22,0.00
2020,05,21,03,23,0.00
2020,05,21,03,24,0.00
2020,05,21,03,25,0.00
2020,05,21,03,26,0.00
2020,05,21,03,27,0.00
2020,05,21,03,28,0.00
2020,05,21,03,29,0.00
2020,05,21,03,30,0.00
2020,05,21,03,31,0.00
2020,05,21,03,32,0.00
2020,05,21,03,33,0.00
2020,05,21,03,34,0.00
2020,05,21,03,35,0.00
2020,05,21,03,36,0.00
2020,05,21,03,37,0.00
2020,05,21,03,38,0.00
2020,05,21,03,39,0.00
2020,05,21,03,40,0.00
2020,05,21,03,41,0.00
2020,05,21,03,42,0.00
2020,05,21,03,43,0.00
2020,05,21,03,44,0.00
2020,05,21,03,45,0.00
2020,05,21,03,46,0.00
2020,05,21,03,47,0.00
2020,05,21,03,48,0.00
2020,05,21,03,49,0.00
2020,05,21,03,50,0.00
2020,05,21,03,51,0.00
2020,05,21,03,52,0.00
2020,05,21,03,53,0.00
2020,05,21,03,54,0.00
2020,05,21,03,55,0.00
2020,05,21,03,56,0.00
2020,05,21,03,57,0.00
2020,05,21,03,58,0.00
2020,05,21,03,59,0.00
2020,05,21,04,00,0.00
2020,05,21,04,01,0.00
2020,05,21,04,02,0.00
2020,05,21,04,03,0.00
2020,05,21,04,04,0.00
2020,05,21,04,05,0.00
2020,05,21,04,06,0.00
2020,05,21,04,07,0.00
2020,05,21,04,08,0.00
2020,05,21,04,09,0.00
2020,05,21,04,10,0.00
2020,05,21,04,11,0.00
2020,05,21,04,12,0.00
2020,05,21,04,13,0.00
2020,05,21,04,14,0.00
2020,05,21,04,15,0.00
2020,05,21,04,16,0.00
2020,05,21,04,17,0.00
2020,05,21,04,18,0.00
2020,05,21,04,19,0.00
2020,05,21,04,20,0.00
2020,05,21,04,21,0.00
2020,05,21,04,22,0.00
2020,05,21,04,23,0.00
2020,05,21,04,24,0.00
2020,05,21,04,25,0.00
2020,05,21,04,26,0.00
2020,05,21,04,27,0.00
2020,05,21,04,28,0.00
2020,05,21,04,29,0.00
2020,05,21,04,30,0.00
2020,05,21,04,31,0.00
2020,05,21,04,32,0.00
2020,05,21,04,33,0.00
2020,05,21,04,34,0.00
2020,05,21,04,35,0.00
2020,05,21,04,36,0.00
2020,05,21,04,37,0.00
2020,05,21,04,38,0.00
2020,05,21,04,39,0.00
2020,05,21,04,40,0.00
2020,05,21,04,41,0.00
2020,05,21,04,42,0.00
2020,05,21,04,43,0.00
2020,05,21,04,44,0.00
2020,05,21,04,45,0.00
2020,05,21,04,46,0.00
2020,05,21,04,47,0.00
2020,05,21,04,48,0.00
2020,05,21,04,49,0.00
2020,05,21,04,50,0.00
2020,05,21,04,51,0.00
2020,05,21,04,52,0.00
2020,05,21,04,53,0.00
2020,05,21,04,54,0.00
2020,05,21,04,55,0.00
2020,05,21,04,56,0.00
2020,05,21,04,57,0.00
2020,05,21,04,58,0.00
2020,05,21,04,59,0.00
2020,05,21,05,00,0.00
2020,05,21,05,01,0.00
2020,05,21,05,02,0.00
2020,05,21,05,03,0.00
2020,05,21,05,04,0.00
2020,05,21,05,05,0.00
2020,05,21,05,06,0.00
2020,05,21,05,07,0.00
2020,05,21,05,08,0.00
2020,05,21,05,09,0.00
2020,05,21,05,10,0.00
2020,05,21,05,11,0.00
2020,05,21,05,12,0.00
2020,05,21,05,13,0.00
2020,05,21,05,14,0.00
2020,05,21,05,15,0.00
2020,05,21,05,16,0.00
2020,05,21,05,17,0.00
2020,05,21,05,18,0.00
2020,05,21,05,19,0.00
2020,05,21,05,20,0.00
2020,05,21,05,21,0.00
2020,05,21,05,22,0.00
2020,05,21,05,23,0.00
2020,05,21,05,24,0.00
2020,05,21,05,25,0.00
2020,05,21,05,26,0.00
2020,05,21,05,27,1.20
2020,05,21,05,28,5.00
2020,05,21,05,29,5.00
2020,05,21,05,30,5.00
2020,05,21,05,31,6.00
2020,05,21,05,32,7.00
2020,05,21,05,33,7.00
2020,05,21,05,34,8.30
2020,05,21,05,35,9.00
2020,05,21,05,36,9.00
2020,05,21,05,37,10.80
2020,05,21,05,38,11.00
2020,05,21,05,39,12.00
2020,05,21,05,40,12.30
2020,05,21,05,41,14.00
2020,05,21,05,42,14.50
2020,05,21,05,43,16.60
2020,05,21,05,44,18.00
2020,05,21,05,45,18.40
2020,05,21,05,46,20.00
2020,05,21,05,47,21.00
2020,05,21,05,48,22.20
2020,05,21,05,49,24.40
2020,05,21,05,50,25.80
2020,05,21,05,51,26.00
2020,05,21,05,52,27.80
2020,05,21,05,53,31.80
2020,05,21,05,54,33.00
2020,05,21,05,55,33.60
2020,05,21,05,56,37.00
2020,05,21,05,57,37.50
2020,05,21,05,58,39.00
2020,05,21,05,59,39.00
2020,05,21,06,00,39.00
2020,05,21,06,01,39.50
2020,05,21,06,02,41.10
2020,05,21,06,03,42.00
2020,05,21,06,04,43.40
2020,05,21,06,05,44.00
2020,05,21,06,06,45.60
2020,05,21,06,07,46.90
2020,05,21,06,08,48.80
2020,05,21,06,09,51.20
2020,05,21,06,10,53.10
2020,05,21,06,11,54.00
2020,05,21,06,12,54.00
2020,05,21,06,13,54.00
2020,05,21,06,14,54.70
2020,05,21,06,15,56.00
2020,05,21,06,16,56.00
2020,05,21,06,17,57.10
2020,05,21,06,18,59.30
2020,05,21,06,19,60.00
2020,05,21,06,20,61.50
2020,05,21,06,21,62.00
2020,05,21,06,22,62.90
2020,05,21,06,23,64.90
2020,05,21,06,24,65.40
2020,05,21,06,25,69.70
2020,05,21,06,26,76.60
2020,05,21,06,27,79.00
2020,05,21,06,28,78.40
2020,05,21,06,29,77.80
2020,05,21,06,30,79.90
2020,05,21,06,31,82.10
2020,05,21,06,32,83.00
2020,05,21,06,33,83.00
2020,05,21,06,34,83.70
2020,05,21,06,35,87.00
2020,05,21,06,36,90.40
2020,05,21,06,37,92.70
2020,05,21,06,38,94.90
2020,05,21,06,39,96.80
2020,05,21,06,40,94.80
2020,05,21,06,41,93.00
2020,05,21,06,42,93.00
2020,05,21,06,43,93.60
2020,05,21,06,44,96.10
2020,05,21,06,45,99.80
2020,05,21,06,46,103.50
2020,05,21,06,47,108.30
2020,05,21,06,48,112.90
2020,05,21,06,49,113.30
2020,05,21,06,50,110.00
2020,05,21,06,51,105.00
2020,05,21,06,52,100.40
2020,05,21,06,53,98.10
2020,05,21,06,54,95.00
2020,05,21,06,55,93.00
2020,05,21,06,56,93.40
2020,05,21,06,57,95.50
2020,05,21,06,58,97.30
2020,05,21,06,59,99.50
2020,05,21,07,00,102.90
2020,05,21,07,01,105.60
2020,05,21,07,02,109.40
2020,05,21,07,03,114.10
2020,05,21,07,04,118.70
2020,05,21,07,05,122.30
2020,05,21,07,06,127.10
2020,05,21,07,07,131.60
2020,05,21,07,08,136.80
2020,05,21,07,09,144.50
2020,05,21,07,10,149.60
2020,05,21,07,11,153.40
2020,05,21,07,12,155.00
2020,05,21,07,13,156.00
2020,05,21,07,14,159.60
2020,05,21,07,15,164.20
2020,05,21,07,16,167.00
2020,05,21,07,17,164.10
2020,05,21,07,18,158.30
2020,05,21,07,19,154.00
2020,05,21,07,20,151.50
2020,05,21,07,21,151.00
2020,05,21,07,22,151.00
2020,05,21,07,23,149.10
2020,05,21,07,24,145.80
2020,05,21,07,25,141.90
2020,05,21,07,26,140.20
2020,05,21,07,27,136.50
2020,05,21,07,28,135.00
2020,05,21,07,29,135.80
2020,05,21,07,30,137.00
2020,05,21,07,31,140.30
2020,05,21,07,32,146.30
2020,05,21,07,33,151.20
2020,05,21,07,34,156.50
2020,05,21,07,35,159.50
2020,05,21,07,36,162.50
2020,05,21,07,37,163.00
2020,05,21,07,38,163.00
2020,05,21,07,39,159.80
2020,05,21,07,40,155.60
2020,05,21,07,41,152.60
2020,05,21,07,42,150.50
2020,05,21,07,43,149.00
2020,05,21,07,44,149.00
2020,05,21,07,45,149.00
2020,05,21,07,46,148.50
2020,05,21,07,47,148.00
2020,05,21,07,48,148.60
2020,05,21,07,49,151.90
2020,05,21,07,50,154.50
2020,05,21,07,51,155.00
2020,05,21,07,52,155.00
2020,05,21,07,53,155.90
2020,05,21,07,54,160.10
2020,05,21,07,55,163.60
2020,05,21,07,56,169.60
2020,05,21,07,57,173.40
2020,05,21,07,58,179.60
2020,05,21,07,59,185.70
2020,05,21,08,00,193.20
2020,05,21,08,01,202.20
2020,05,21,08,02,234.40
2020,05,21,08,03,258.10
2020,05,21,08,04,292.70
2020,05,21,08,05,270.50
2020,05,21,08,06,254.00
2020,05,21,08,07,296.40
2020,05,21,08,08,213.60
2020,05,21,08,09,203.60
2020,05,21,08,10,213.00
2020,05,21,08,11,170.60
2020,05,21,08,12,162.90
2020,05,21,08,13,144.60
2020,05,21,08,14,138.60
2020,05,21,08,15,131.40
2020,05,21,08,16,126.40
2020,05,21,08,17,122.80
2020,05,21,08,18,121.00
2020,05,21,08,19,117.40
2020,05,21,08,20,114.50
2020,05,21,08,21,117.30
2020,05,21,08,22,119.80
2020,05,21,08,23,124.80
2020,05,21,08,24,128.40
2020,05,21,08,25,135.70
2020,05,21,08,26,144.50
2020,05,21,08,27,158.80
2020,05,21,08,28,173.70
2020,05,21,08,29,189.10
2020,05,21,08,30,205.40
2020,05,21,08,31,216.70
2020,05,21,08,32,222.90
2020,05,21,08,33,226.30
2020,05,21,08,34,229.10
2020,05,21,08,35,233.00
2020,05,21,08,36,238.00
2020,05,21,08,37,243.30
2020,05,21,08,38,247.80
2020,05,21,08,39,248.00
2020,05,21,08,40,247.40
2020,05,21,08,41,242.70
2020,05,21,08,42,235.60
2020,05,21,08,43,230.20
2020,05,21,08,44,224.30
2020,05,21,08,45,217.40
2020,05,21,08,46,211.20
2020,05,21,08,47,207.30
2020,05,21,08,48,206.00
2020,05,21,08,49,206.00
2020,05,21,08,50,208.30
2020,05,21,08,51,212.30
2020,05,21,08,52,217.50
2020,05,21,08,53,222.80
2020,05,21,08,54,227.00
2020,05,21,08,55,227.00
2020,05,21,08,56,227.40
2020,05,21,08,57,229.20
2020,05,21,08,58,231.30
2020,05,21,08,59,234.00
2020,05,21,09,00,234.90
2020,05,21,09,01,237.50
2020,05,21,09,02,273.30
2020,05,21,09,03,267.20
2020,05,21,09,04,239.20
2020,05,21,09,05,230.70
2020,05,21,09,06,229.00
2020,05,21,09,07,227.30
2020,05,21,09,08,228.90
2020,05,21,09,09,230.10
2020,05,21,09,10,232.50
2020,05,21,09,11,237.00
2020,05,21,09,12,242.90
2020,05,21,09,13,249.00
2020,05,21,09,14,253.70
2020,05,21,09,15,260.40
2020,05,21,09,16,267.50
2020,05,21,09,17,271.60
2020,05,21,09,18,272.00
2020,05,21,09,19,273.30
2020,05,21,09,20,274.00
2020,05,21,09,21,270.00
2020,05,21,09,22,264.70
2020,05,21,09,23,266.90
2020,05,21,09,24,261.00
2020,05,21,09,25,249.20
2020,05,21,09,26,237.30
2020,05,21,09,27,229.20
2020,05,21,09,28,225.00
2020,05,21,09,29,220.60
2020,05,21,09,30,220.00
2020,05,21,09,31,220.50
2020,05,21,09,32,222.10
2020,05,21,09,33,225.50
2020,05,21,09,34,232.00
2020,05,21,09,35,239.30
2020,05,21,09,36,246.70
2020,05,21,09,37,256.10
2020,05,21,09,38,264.00
2020,05,21,09,39,271.40
2020,05,21,09,40,280.10
2020,05,21,09,41,288.50
2020,05,21,09,42,297.60
2020,05,21,09,43,308.00
2020,05,21,09,44,319.60
2020,05,21,09,45,328.20
2020,05,21,09,46,335.70
2020,05,21,09,47,339.00
2020,05,21,09,48,340.20
2020,05,21,09,49,343.70
2020,05,21,09,50,345.00
2020,05,21,09,51,347.50
2020,05,21,09,52,352.50
2020,05,21,09,53,359.70
2020,05,21,09,54,360.80
2020,05,21,09,55,379.10
2020,05,21,09,56,397.70
2020,05,21,09,57,393.90
2020,05,21,09,58,402.70
2020,05,21,09,59,415.60
2020,05,21,10,00,424.00
2020,05,21,10,01,431.00
2020,05,21,10,02,442.40
2020,05,21,10,03,465.20
2020,05,21,10,04,501.20
2020,05,21,10,05,522.70
2020,05,21,10,06,526.00
2020,05,21,10,07,535.00
2020,05,21,10,08,499.00
2020,05,21,10,09,497.00
2020,05,21,10,10,497.30
2020,05,21,10,11,496.60
2020,05,21,10,12,473.10
2020,05,21,10,13,436.70
2020,05,21,10,14,444.00
2020,05,21,10,15,483.20
2020,05,21,10,16,517.00
2020,05,21,10,17,467.90
2020,05,21,10,18,390.70
2020,05,21,10,19,374.00
2020,05,21,10,20,428.00
2020,05,21,10,21,441.00
2020,05,21,10,22,732.90
2020,05,21,10,23,800.80
2020,05,21,10,24,825.30
2020,05,21,10,25,734.00
2020,05,21,10,26,755.40
2020,05,21,10,27,767.40
2020,05,21,10,28,736.30
2020,05,21,10,29,687.00
2020,05,21,10,30,715.20
2020,05,21,10,31,704.00
2020,05,21,10,32,659.00
2020,05,21,10,33,659.00
2020,05,21,10,34,629.00
2020,05,21,10,35,611.80
2020,05,21,10,36,610.00
2020,05,21,10,37,768.60
2020,05,21,10,38,784.50
2020,05,21,10,39,799.80
2020,05,21,10,40,794.00
2020,05,21,10,41,788.00
2020,05,21,10,42,790.20
2020,05,21,10,43,796.00
2020,05,21,10,44,797.50
2020,05,21,10,45,800.00
2020,05,21,10,46,801.00
2020,05,21,10,47,802.00
2020,05,21,10,48,802.00
2020,05,21,10,49,802.70
2020,05,21,10,50,806.00
2020,05,21,10,51,811.20
2020,05,21,10,52,816.50
2020,05,21,10,53,822.70
2020,05,21,10,54,823.30
2020,05,21,10,55,806.30
2020,05,21,10,56,724.00
2020,05,21,10,57,724.00
2020,05,21,10,58,749.20
2020,05,21,10,59,796.00
2020,05,21,11,00,874.40
2020,05,21,11,01,992.80
2020,05,21,11,02,1004.00
2020,05,21,11,03,1004.00
2020,05,21,11,04,1004.00
2020,05,21,11,05,689.80
2020,05,21,11,06,599.40
2020,05,21,11,07,636.70
2020,05,21,11,08,642.00
2020,05,21,11,09,625.80
2020,05,21,11,10,296.50
2020,05,21,11,11,260.20
2020,05,21,11,12,239.60
2020,05,21,11,13,241.70
2020,05,21,11,14,263.40
2020,05,21,11,15,279.00
2020,05,21,11,16,711.30
2020,05,21,11,17,1065.00
2020,05,21,11,18,585.20
2020,05,21,11,19,290.00
2020,05,21,11,20,290.00
2020,05,21,11,21,290.00
2020,05,21,11,22,290.00
2020,05,21,11,23,290.00
2020,05,21,11,24,290.00
2020,05,21,11,25,290.00
2020,05,21,11,26,439.30
2020,05,21,11,27,1074.60
2020,05,21,11,28,1082.30
2020,05,21,11,29,1085.10
2020,05,21,11,30,1069.90
2020,05,21,11,31,1071.60
2020,05,21,11,32,1078.30
2020,05,21,11,33,1072.80
2020,05,21,11,34,1067.00
2020,05,21,11,35,445.30
2020,05,21,11,36,290.10
2020,05,21,11,37,341.00
2020,05,21,11,38,372.40
2020,05,21,11,39,332.00
2020,05,21,11,40,342.10
2020,05,21,11,41,414.80
2020,05,21,11,42,452.00
2020,05,21,11,43,376.10
2020,05,21,11,44,181.50
2020,05,21,11,45,138.50
2020,05,21,11,46,108.40
2020,05,21,11,47,87.70
2020,05,21,11,48,76.70
2020,05,21,11,49,75.40
2020,05,21,11,50,78.30
2020,05,21,11,51,86.40
2020,05,21,11,52,90.70
2020,05,21,11,53,94.80
2020,05,21,11,54,98.10
2020,05,21,11,55,100.50
2020,05,21,11,56,105.00
2020,05,21,11,57,109.50
2020,05,21,11,58,112.00
2020,05,21,11,59,118.20
2020,05,21,12,00,131.30
2020,05,21,12,01,146.30
2020,05,21,12,02,161.40
2020,05,21,12,03,170.10
2020,05,21,12,04,163.80
2020,05,21,12,05,153.20
2020,05,21,12,06,141.40
2020,05,21,12,07,125.30
2020,05,21,12,08,105.10
2020,05,21,12,09,88.70
2020,05,21,12,10,74.40
2020,05,21,12,11,63.20
2020,05,21,12,12,54.60
2020,05,21,12,13,50.30
2020,05,21,12,14,48.20
2020,05,21,12,15,47.00
2020,05,21,12,16,47.00
2020,05,21,12,17,47.00
2020,05,21,12,18,47.00
2020,05,21,12,19,48.40
2020,05,21,12,20,52.00
2020,05,21,12,21,55.40
2020,05,21,12,22,62.00
2020,05,21,12,23,68.70
2020,05,21,12,24,74.70
2020,05,21,12,25,81.80
2020,05,21,12,26,87.40
2020,05,21,12,27,93.50
2020,05,21,12,28,95.00
2020,05,21,12,29,93.60
2020,05,21,12,30,89.70
2020,05,21,12,31,87.00
2020,05,21,12,32,87.10
2020,05,21,12,33,89.90
2020,05,21,12,34,94.90
2020,05,21,12,35,100.80
2020,05,21,12,36,106.00
2020,05,21,12,37,110.60
2020,05,21,12,38,112.90
2020,05,21,12,39,110.70
2020,05,21,12,40,104.20
2020,05,21,12,41,99.60
2020,05,21,12,42,97.70
2020,05,21,12,43,97.00
2020,05,21,12,44,96.20
2020,05,21,12,45,94.10
2020,05,21,12,46,92.00
2020,05,21,12,47,90.40
2020,05,21,12,48,88.80
2020,05,21,12,49,89.40
2020,05,21,12,50,92.30
2020,05,21,12,51,94.60
2020,05,21,12,52,97.70
2020,05,21,12,53,98.00
2020,05,21,12,54,97.90
2020,05,21,12,55,94.70
2020,05,21,12,56,92.60
2020,05,21,12,57,90.30
2020,05,21,12,58,87.40
2020,05,21,12,59,86.80
2020,05,21,13,00,89.30
2020,05,21,13,01,94.70
2020,05,21,13,02,103.40
2020,05,21,13,03,113.80
2020,05,21,13,04,122.80
2020,05,21,13,05,125.00
2020,05,21,13,06,129.00
2020,05,21,13,07,127.40
2020,05,21,13,08,123.20
2020,05,21,13,09,121.10
2020,05,21,13,10,123.00
2020,05,21,13,11,123.80
2020,05,21,13,12,127.80
2020,05,21,13,13,133.00
2020,05,21,13,14,143.80
2020,05,21,13,15,158.20
2020,05,21,13,16,175.60
2020,05,21,13,17,195.90
2020,05,21,13,18,217.40
2020,05,21,13,19,240.00
2020,05,21,13,20,259.50
2020,05,21,13,21,279.40
2020,05,21,13,22,300.10
2020,05,21,13,23,317.80
2020,05,21,13,24,328.80
2020,05,21,13,25,326.70
2020,05,21,13,26,326.00
2020,05,21,13,27,328.30
2020,05,21,13,28,322.10
2020,05,21,13,29,304.40
2020,05,21,13,30,264.10
2020,05,21,13,31,230.00
2020,05,21,13,32,196.60
2020,05,21,13,33,170.10
2020,05,21,13,34,149.10
2020,05,21,13,35,133.30
2020,05,21,13,36,120.30
2020,05,21,13,37,112.00
2020,05,21,13,38,107.20
2020,05,21,13,39,111.50
2020,05,21,13,40,123.60
2020,05,21,13,41,143.60
2020,05,21,13,42,168.00
2020,05,21,13,43,187.20
2020,05,21,13,44,196.60
2020,05,21,13,45,202.10
2020,05,21,13,46,211.20
2020,05,21,13,47,224.80
2020,05,21,13,48,233.20
2020,05,21,13,49,235.40
2020,05,21,13,50,231.50
2020,05,21,13,51,222.60
2020,05,21,13,52,232.70
2020,05,21,13,53,276.80
2020,05,21,13,54,293.10
2020,05,21,13,55,427.00
2020,05,21,13,56,448.70
2020,05,21,13,57,541.00
2020,05,21,13,58,466.90
2020,05,21,13,59,301.00
2020,05,21,14,00,288.90
2020,05,21,14,01,297.70
2020,05,21,14,02,319.40
2020,05,21,14,03,362.50
2020,05,21,14,04,416.40
2020,05,21,14,05,485.80
2020,05,21,14,06,504.00
2020,05,21,14,07,504.00
2020,05,21,14,08,504.00
2020,05,21,14,09,504.00
2020,05,21,14,10,504.00
2020,05,21,14,11,454.20
2020,05,21,14,12,243.50
2020,05,21,14,13,196.70
2020,05,21,14,14,163.60
2020,05,21,14,15,139.40
2020,05,21,14,16,121.00
2020,05,21,14,17,110.00
2020,05,21,14,18,105.10
2020,05,21,14,19,101.30
2020,05,21,14,20,98.60
2020,05,21,14,21,98.00
2020,05,21,14,22,97.10
2020,05,21,14,23,93.20
2020,05,21,14,24,89.70
2020,05,21,14,25,83.30
2020,05,21,14,26,75.70
2020,05,21,14,27,68.00
2020,05,21,14,28,61.30
2020,05,21,14,29,58.00
2020,05,21,14,30,58.90
2020,05,21,14,31,60.00
2020,05,21,14,32,60.00
2020,05,21,14,33,58.80
2020,05,21,14,34,56.60
2020,05,21,14,35,53.70
2020,05,21,14,36,49.80
2020,05,21,14,37,47.30
2020,05,21,14,38,46.10
2020,05,21,14,39,46.00
2020,05,21,14,40,46.00
2020,05,21,14,41,46.20
2020,05,21,14,42,47.00
2020,05,21,14,43,47.00
2020,05,21,14,44,47.00
2020,05,21,14,45,47.90
2020,05,21,14,46,50.00
2020,05,21,14,47,52.10
2020,05,21,14,48,54.90
2020,05,21,14,49,57.30
2020,05,21,14,50,61.80
2020,05,21,14,51,66.20
2020,05,21,14,52,71.50
2020,05,21,14,53,76.80
2020,05,21,14,54,84.30
2020,05,21,14,55,92.00
2020,05,21,14,56,98.80
2020,05,21,14,57,104.50
2020,05,21,14,58,115.70
2020,05,21,14,59,128.30
2020,05,21,15,00,137.40
2020,05,21,15,01,144.90
2020,05,21,15,02,150.90
2020,05,21,15,03,161.70
2020,05,21,15,04,179.00
2020,05,21,15,05,198.00
2020,05,21,15,06,211.70
2020,05,21,15,07,230.30
2020,05,21,15,08,249.10
2020,05,21,15,09,260.60
2020,05,21,15,10,266.70
2020,05,21,15,11,264.40
2020,05,21,15,12,261.50
2020,05,21,15,13,259.40
2020,05,21,15,14,256.80
2020,05,21,15,15,252.00
2020,05,21,15,16,238.00
2020,05,21,15,17,222.70
2020,05,21,15,18,215.50
2020,05,21,15,19,216.70
2020,05,21,15,20,197.00
2020,05,21,15,21,181.10
2020,05,21,15,22,162.70
2020,05,21,15,23,155.50
2020,05,21,15,24,158.20
2020,05,21,15,25,164.10
2020,05,21,15,26,171.50
2020,05,21,15,27,179.50
2020,05,21,15,28,197.00
2020,05,21,15,29,213.00
2020,05,21,15,30,243.90
2020,05,21,15,31,253.50
2020,05,21,15,32,260.90
2020,05,21,15,33,269.10
2020,05,21,15,34,278.10
2020,05,21,15,35,289.70
2020,05,21,15,36,300.10
2020,05,21,15,37,308.30
2020,05,21,15,38,314.70
2020,05,21,15,39,323.40
2020,05,21,15,40,327.30
2020,05,21,15,41,329.00
2020,05,21,15,42,329.00
2020,05,21,15,43,334.40
2020,05,21,15,44,366.70
2020,05,21,15,45,411.60
2020,05,21,15,46,425.20
2020,05,21,15,47,408.50
2020,05,21,15,48,381.20
2020,05,21,15,49,358.10
2020,05,21,15,50,347.40
2020,05,21,15,51,349.20
2020,05,21,15,52,364.60
2020,05,21,15,53,404.00
2020,05,21,15,54,459.80
2020,05,21,15,55,474.60
2020,05,21,15,56,472.30
2020,05,21,15,57,464.70
2020,05,21,15,58,405.10
2020,05,21,15,59,365.20
2020,05,21,16,00,359.40
2020,05,21,16,01,363.10
2020,05,21,16,02,381.60
2020,05,21,16,03,419.20
2020,05,21,16,04,441.00
2020,05,21,16,05,448.30
2020,05,21,16,06,457.30
2020,05,21,16,07,481.10
2020,05,21,16,08,533.60
2020,05,21,16,09,536.00
2020,05,21,16,10,537.70
2020,05,21,16,11,532.40
2020,05,21,16,12,464.30
2020,05,21,16,13,459.00
2020,05,21,16,14,459.00
2020,05,21,16,15,431.10
2020,05,21,16,16,394.00
2020,05,21,16,17,394.00
2020,05,21,16,18,394.00
2020,05,21,16,19,366.00
2020,05,21,16,20,336.80
2020,05,21,16,21,321.80
2020,05,21,16,22,320.00
2020,05,21,16,23,509.50
2020,05,21,16,24,461.10
2020,05,21,16,25,452.00
2020,05,21,16,26,410.90
2020,05,21,16,27,243.80
2020,05,21,16,28,266.30
2020,05,21,16,29,266.40
2020,05,21,16,30,278.00
2020,05,21,16,31,290.00
2020,05,21,16,32,424.20
2020,05,21,16,33,527.80
2020,05,21,16,34,510.00
2020,05,21,16,35,473.30
2020,05,21,16,36,426.40
2020,05,21,16,37,459.20
2020,05,21,16,38,464.00
2020,05,21,16,39,690.90
2020,05,21,16,40,680.60
2020,05,21,16,41,608.80
2020,05,21,16,42,617.00
2020,05,21,16,43,547.00
2020,05,21,16,44,444.50
2020,05,21,16,45,278.00
2020,05,21,16,46,357.10
2020,05,21,16,47,429.00
2020,05,21,16,48,429.00
2020,05,21,16,49,429.00
2020,05,21,16,50,248.20
2020,05,21,16,51,180.70
2020,05,21,16,52,168.70
2020,05,21,16,53,158.10
2020,05,21,16,54,150.80
2020,05,21,16,55,145.70
2020,05,21,16,56,144.60
2020,05,21,16,57,151.00
2020,05,21,16,58,165.40
2020,05,21,16,59,185.90
2020,05,21,17,00,200.90
2020,05,21,17,01,210.00
2020,05,21,17,02,217.40
2020,05,21,17,03,223.10
2020,05,21,17,04,225.00
2020,05,21,17,05,226.50
2020,05,21,17,06,225.40
2020,05,21,17,07,228.50
2020,05,21,17,08,248.90
2020,05,21,17,09,260.20
2020,05,21,17,10,462.40